sat.trackr.live / text

‹ back to catalog

STARLINK-36757

NORAD 67728 · 2026-026H

PAYLOAD ACTIVE UNKNOWN

§ Identity

Operator
Country
US
Launch date
2026-02-11
Launch site
AFWTR
Launch vehicle
Mass (kg)
RCS (m²)

Purposes: comms

External: N2YO · Heavens-Above · Gunter

§ Orbital elements

Epoch: 2026-09-19T22:41:03.647040Z

Period
93.91 min
Inclination
97.2858°
Eccentricity
0.0000683
Mean motion
15.33451069 rev/d
Perigee alt
465.1 km
Apogee alt
466.0 km
Semi-major
6,843.7 km
B*
2.7120e-4
RAAN
314.7552°
Arg perigee
104.0202°
Mean anomaly
256.1117°
Rev number
3,389

§ Raw data

STARLINK-367571 67728U 26026H   26262.94518110  .00008692  00000+0  27120-3 0  99922 67728  97.2858 314.7552 0000683 104.0202 256.1117 15.33451069 33897

JSON: /api/v1/satellites/67728 · /tle

For live sub-satellite position, see the globe view (requires WebGL).

§ Visibility from observer

Set your observer location to see the next 7 days of passes ≥ 10°. The values pass through the URL so the page stays shareable.

No JS? Fill the form by hand. The geolocation button needs JavaScript.